Wind_Speed
6 6 6 6 5 4 4 4 3 3 3 4 4 5 6 5 5 6 6 6 7 8 8 9 10 11 11 11 11 12 12 12 11 11 11 11 12 12 12 13 14 15 15 16 17 17 17 18 18 17 17 18 17 16 16 16 16 16 16 17 18 19 21 23 24 25 23 23 22 20 18 19 20 20 20 20 20 22 22 19 19 19 17 16 18
6 6 6 5 5 4 4 4 4 4 4 4 5 6 6 6 6 6 6 6 7 8 9 9 10 11 12 11 11 12 12 11 10 11 11 12 12 13 13 13 13 13 15 16 16 16 17 18 19 18 18 18 18 17 17 17 17 17 17 17 17 17 20 22 22 22 22 22 21 20 19 18 20 22 23 20 20 23 23 20 20 22 21 20 19
5 5 6 5 4 4 4 4 4 4 4 5 6 6 6 7 7 6 6 7 8 9 10 10 10 11 11 12 11 11 11 11 11 11 11 12 13 13 13 14 14 14 15 16 16 16 16 17 18 18 17 18 19 18 18 18 17 18 19 18 18 18 20 20 20 20 21 20 19 19 18 18 20 22 21 20 21 24 24 23 23 21 20 22 22
3 3 4 4 3 3 3 4 5 6 5 5 7 7 7 7 8 8 7 7 8 9 10 11 11 11 12 12 12 12 12 11 11 11 12 12 12 13 13 14 14 15 16 16 17 17 17 17 18 17 18 19 19 19 18 18 18 19 19 19 20 21 20 20 21 20 20 19 19 18 18 19 22 21 19 20 22 22 21 22 24 22 20 21 23
3 2 3 3 3 3 4 5 6 7 6 6 7 8 8 9 9 9 8 8 9 9 10 11 11 12 12 12 13 13 12 12 12 12 13 12 13 13 14 14 14 15 16 17 17 18 18 18 18 18 19 20 20 19 19 19 19 20 20 19 20 20 20 21 22 21 21 20 19 19 19 20 21 20 19 20 22 22 22 22 22 23 22 20 22
4 3 3 3 3 3 4 6 6 7 6 7 8 9 9 10 10 10 10 9 10 10 10 11 11 12 13 13 13 13 12 12 12 13 13 13 13 14 15 15 15 15 16 16 17 18 18 19 19 19 20 20 21 20 20 20 20 20 20 20 20 20 21 22 22 22 23 22 21 21 21 21 21 20 19 20 21 23 24 22 20 22 22 21 21
4 3 3 4 5 4 5 6 6 6 6 7 8 9 10 11 11 11 10 10 11 10 10 11 12 13 13 13 13 14 13 12 12 12 13 13 14 15 16 16 16 16 16 16 17 17 18 19 19 19 20 20 21 21 21 21 21 21 21 21 21 21 22 23 23 23 24 22 21 22 21 20 20 18 17 18 20 22 24 23 21 20 21 22 20
5 3 3 5 5 5 5 6 7 6 7 8 9 10 11 11 11 11 10 11 12 11 11 12 12 12 13 13 14 14 13 13 12 12 12 13 14 15 16 16 17 17 17 18 18 18 19 19 19 20 21 21 21 22 22 22 22 22 22 21 21 22 23 24 23 23 23 23 22 21 21 21 21 20 19 18 19 21 21 22 23 22 21 22 22
5 4 4 4 5 5 6 7 7 8 8 9 10 11 12 12 11 10 11 11 12 13 13 13 13 13 13 13 14 14 13 13 13 13 14 14 15 16 17 18 18 18 19 19 18 19 20 20 20 21 21 21 22 23 24 24 24 24 23 23 23 23 25 25 24 24 24 24 23 22 21 22 22 21 21 20 19 19 18 19 22 23 22 22 23
6 5 5 5 5 5 6 8 8 9 9 10 11 11 12 11 11 11 12 12 12 13 13 13 15 17 16 14 13 14 14 13 13 14 15 15 16 17 18 19 19 20 20 21 20 20 20 21 21 21 21 22 23 24 24 24 25 26 26 26 25 26 26 27 27 26 26 26 26 24 23 23 23 22 21 20 19 18 17 17 19 20 21 23 24
7 6 6 6 6 6 8 9 10 10 10 11 11 11 11 12 12 12 12 13 13 13 14 16 19 21 18 14 13 15 15 15 16 16 16 16 16 17 17 18 18 20 20 21 22 22 21 21 21 21 21 22 23 23 24 24 26 27 28 28 28 28 28 28 27 27 27 28 28 26 25 25 24 22 22 21 20 19 18 17 18 18 20 22 22
8 8 8 8 7 8 9 11 11 11 11 11 12 12 12 13 12 13 13 14 14 16 18 20 22 20 16 15 15 16 16 17 20 20 17 16 17 18 19 18 18 19 20 20 21 22 22 23 23 22 22 22 23 23 23 23 24 25 27 29 29 30 30 29 29 28 28 29 29 28 27 26 25 24 23 22 20 20 18 18 20 20 21 22 22
9 9 10 10 9 9 11 11 11 12 12 12 13 13 13 13 13 14 15 16 18 20 21 21 21 18 15 16 17 17 17 18 21 21 18 17 17 18 20 21 20 20 20 21 22 22 23 24 25 25 23 22 23 23 23 23 24 25 26 27 28 29 30 31 30 29 29 29 29 29 27 26 26 25 24 22 21 21 20 20 20 20 22 24 24
9 11 11 10 10 10 11 12 13 13 14 14 14 15 14 15 15 15 16 18 20 21 21 20 19 17 16 17 17 17 17 18 20 21 19 18 18 18 20 22 22 22 22 22 23 23 23 23 25 27 26 24 23 24 25 25 24 25 26 26 27 27 28 29 30 30 30 30 30 30 29 28 28 27 25 24 24 25 25 24 24 24 25 26 25
10 11 12 11 11 11 12 13 14 15 15 16 16 16 16 15 16 17 19 21 23 22 21 19 18 17 17 17 18 18 18 18 20 22 21 20 20 20 21 22 22 22 22 22 22 22 23 24 25 26 28 27 25 24 25 25 25 26 26 26 27 27 27 29 30 29 29 30 30 30 29 28 28 28 26 25 25 26 27 28 28 28 28 28 28
11 12 12 11 12 13 14 15 16 16 17 17 17 17 16 17 18 20 22 24 23 22 21 19 18 18 18 18 18 18 19 19 21 24 25 24 23 22 22 21 21 21 21 21 21 21 22 23 24 25 26 27 27 27 26 26 26 28 28 27 27 27 28 28 28 28 29 30 30 30 29 29 28 27 26 26 26 26 27 28 28 27 27 27 28
11 12 12 12 13 15 16 17 17 18 18 17 17 17 18 20 21 22 22 21 21 21 21 19 18 18 18 18 18 19 20 22 24 26 27 25 22 21 19 19 19 20 21 21 21 21 21 21 22 24 24 25 27 28 29 28 28 28 28 27 27 27 27 27 26 27 29 31 31 32 32 32 32 31 30 30 30 29 29 29 28 26 26 27 28
12 12 12 12 15 17 17 17 17 17 17 17 18 19 21 22 22 22 20 19 20 22 21 20 19 20 20 21 21 22 23 24 24 25 24 21 19 18 17 17 18 18 19 20 20 20 21 21 22 24 24 25 26 28 30 30 30 29 29 28 29 29 27 25 25 25 27 29 30 31 32 33 32 32 32 31 31 31 32 32 30 29 29 30 30
12 12 12 15 17 18 17 17 17 16 16 18 20 21 22 22 23 23 21 20 21 21 19 20 21 22 22 23 22 22 22 21 19 20 21 19 17 16 16 16 17 18 19 20 20 20 20 21 22 23 24 25 25 25 26 28 29 29 29 29 31 30 27 25 26 26 26 26 26 27 29 31 31 30 30 29 29 30 32 33 32 31 31 31 30
12 12 14 17 17 16 15 15 15 15 17 19 21 22 22 23 23 22 20 20 20 20 20 20 21 21 21 20 19 18 18 17 16 18 21 19 16 15 16 16 17 18 19 20 21 20 20 19 20 21 22 23 23 23 23 24 27 29 29 30 31 30 28 26 27 27 26 25 24 25 27 29 30 29 28 28 28 28 29 30 30 30 31 30 30
12 14 16 16 15 14 14 14 15 17 19 20 22 23 23 23 21 19 18 18 19 19 19 19 18 18 17 17 17 17 16 16 17 17 19 19 16 16 17 18 18 18 19 21 21 21 21 20 20 20 21 23 23 24 24 24 25 27 29 32 32 31 29 28 28 27 28 28 27 26 27 27 28 28 28 28 27 27 27 28 27 28 29 30 30
13 15 15 13 12 13 14 16 17 19 20 21 23 23 20 18 17 17 17 17 17 18 18 17 17 16 15 16 16 16 15 16 18 18 18 19 18 18 18 19 20 20 21 22 22 22 22 22 22 23 24 25 25 25 26 26 27 28 29 31 34 34 34 32 30 29 29 29 28 26 26 26 25 24 25 26 26 27 28 29 29 29 30 30 30
13 12 11 11 12 13 16 18 19 19 20 21 21 18 16 15 15 16 16 16 16 17 18 18 18 17 16 16 15 15 15 16 17 18 19 19 20 20 20 20 21 21 21 22 22 22 22 23 24 26 27 27 27 27 27 27 28 29 29 30 32 34 35 35 33 31 29 29 29 28 27 26 24 23 24 26 26 26 27 29 30 30 30 31 31
10 9 9 11 13 15 17 19 19 19 19 18 16 15 15 16 16 17 17 17 16 17 17 18 18 18 18 17 15 16 17 17 18 19 19 20 21 21 21 20 20 20 22 23 24 24 24 24 27 29 31 30 30 29 29 28 27 27 27 28 30 32 34 35 35 33 31 30 30 29 27 26 25 26 27 27 26 25 26 28 29 29 31 32 32
8 8 9 11 13 14 17 18 17 16 16 15 14 15 16 17 18 18 19 18 18 17 18 19 18 17 18 18 17 18 19 20 20 19 19 20 21 21 21 21 22 24 26 28 28 29 30 31 32 34 35 34 33 32 31 29 26 25 25 25 27 30 33 34 34 34 33 31 30 30 29 28 27 27 27 26 25 25 25 26 28 29 31 32 32
8 8 8 9 10 12 14 15 15 14 13 14 15 16 17 17 18 19 18 19 19 18 18 19 18 18 19 20 20 20 20 20 20 19 19 20 21 20 20 21 25 29 31 30 30 30 31 31 32 34 35 33 32 32 31 29 27 26 26 26 26 28 31 32 33 35 34 31 30 31 30 29 28 28 27 26 26 27 26 27 28 29 29 31 31
7 7 8 9 10 12 14 15 14 13 13 14 15 16 16 16 17 18 17 18 18 16 16 17 18 19 20 20 20 19 18 18 18 19 21 22 22 21 21 22 27 31 30 29 29 30 31 31 32 34 35 34 32 31 31 30 28 26 25 25 25 26 27 27 29 31 32 32 31 31 30 30 29 28 26 26 27 27 25 25 27 28 27 28 30
7 7 8 9 10 12 14 14 13 13 14 16 16 16 16 16 16 17 16 16 17 16 15 16 17 18 19 19 19 18 17 17 18 21 24 25 27 28 29 28 30 29 28 27 29 32 34 33 32 31 32 32 31 29 28 28 27 25 23 23 23 24 24 24 24 25 27 29 30 30 29 29 29 27 25 24 25 24 23 23 26 27 27 27 28
8 8 8 9 11 13 14 13 13 14 15 16 16 17 17 16 16 16 15 14 17 17 16 16 16 17 18 19 19 18 17 17 20 24 27 29 30 32 33 32 31 30 30 30 31 33 35 34 31 29 28 27 27 26 24 25 25 24 23 22 23 23 23 25 25 25 25 26 27 28 28 28 28 28 28 27 26 24 24 25 26 28 29 29 29
7 8 9 10 12 15 14 12 13 15 16 16 17 18 18 17 18 19 19 19 20 19 17 16 17 17 18 18 18 19 20 21 24 27 28 29 30 31 32 32 33 32 32 32 32 33 34 32 28 27 26 24 23 24 24 23 24 23 22 21 22 23 23 25 26 25 24 24 25 26 27 27 28 28 28 29 28 25 24 24 25 26 28 28 27
7 8 10 11 14 15 13 12 14 16 16 17 18 18 17 17 18 20 22 23 23 20 17 18 19 18 18 19 19 19 21 22 23 25 26 28 29 29 30 30 31 30 30 31 32 32 32 30 27 25 24 23 23 23 22 22 23 24 23 22 22 22 23 24 24 23 23 24 24 26 27 28 28 28 27 28 27 25 23 22 22 24 26 26 27
7 9 10 12 14 14 12 13 15 16 16 17 17 16 17 18 19 20 21 23 24 21 20 22 23 22 21 19 19 19 20 21 23 27 29 31 31 31 31 30 29 28 27 28 30 29 28 27 26 23 22 22 21 21 21 21 22 24 24 24 23 22 22 22 22 22 23 24 23 25 27 28 27 27 26 26 27 27 25 23 22 23 25 27 28
7 9 12 14 13 12 13 14 15 15 16 16 15 15 16 19 21 22 22 22 23 22 24 26 27 26 24 21 20 20 22 25 28 31 33 35 36 34 31 29 27 25 23 24 25 24 23 23 22 20 20 19 18 18 18 20 21 22 22 23 22 22 22 23 22 22 24 24 23 24 26 27 26 25 25 26 27 27 27 27 26 26 26 26 27
9 11 15 16 13 11 13 14 15 15 15 14 14 14 15 18 21 23 23 23 23 24 26 26 25 25 25 24 22 23 25 27 31 34 36 37 36 31 26 24 22 19 17 18 19 20 20 20 20 19 19 18 17 16 17 18 19 20 20 20 20 21 21 23 23 23 24 25 25 25 26 27 25 24 24 25 25 26 27 28 27 26 27 27 28
10 11 14 14 12 12 14 14 14 13 13 12 13 15 16 18 20 21 21 22 24 25 26 24 22 24 26 25 23 24 27 30 33 34 34 33 28 21 18 18 18 15 14 14 16 17 17 17 18 18 17 17 17 16 17 17 18 19 19 19 20 20 20 20 21 22 24 25 25 25 26 26 25 24 23 23 24 25 26 27 27 26 26 28 28
11 10 10 11 12 13 14 14 13 13 13 13 14 16 16 17 18 19 19 21 22 24 25 24 23 24 24 23 24 27 30 32 33 31 28 24 20 17 16 16 16 15 14 14 14 14 15 15 16 16 16 15 16 17 17 17 17 18 19 20 20 20 20 19 19 20 22 24 25 25 26 26 25 24 23 22 24 24 24 24 25 24 24 26 26
10 9 9 11 13 14 14 13 13 14 15 15 15 16 16 17 18 19 19 20 22 23 24 23 24 25 23 23 27 32 34 34 33 30 26 22 18 15 15 16 15 16 16 15 14 14 15 15 15 15 14 15 15 16 18 19 20 20 20 20 20 21 20 20 21 21 22 23 23 24 25 25 23 24 24 25 25 25 24 23 23 24 25 26 26
9 9 11 13 15 14 13 12 12 14 14 14 15 16 16 17 18 18 18 20 22 23 23 23 24 25 24 26 32 36 36 34 33 31 28 24 20 17 17 17 16 16 17 16 16 15 15 14 15 15 16 16 16 17 19 20 21 22 22 22 21 20 18 18 18 20 22 22 21 22 23 23 22 23 24 25 26 26 24 23 22 22 23 24 25
8 9 13 16 15 13 12 12 12 13 14 14 15 15 15 17 18 18 18 20 22 22 22 23 23 23 24 28 34 38 37 36 35 33 31 27 23 20 20 19 18 17 17 17 17 17 16 16 16 17 18 18 18 18 19 20 20 21 22 21 19 17 16 16 17 18 20 20 19 19 21 22 22 23 23 24 26 26 24 23 23 23 22 22 23
7 9 12 14 14 13 12 12 11 12 14 14 14 15 15 17 18 17 18 20 21 21 21 22 22 22 25 30 35 37 37 36 35 33 31 29 24 21 20 20 19 18 18 18 18 17 17 18 19 19 18 18 18 17 18 20 19 18 18 18 17 16 16 16 17 17 19 19 20 22 23 23 23 23 22 22 24 25 24 24 23 23 23 23 23
7 9 11 12 13 12 11 10 11 13 14 14 14 14 16 17 17 16 17 19 20 20 20 22 23 25 29 32 34 34 35 35 32 30 30 29 24 21 20 20 19 18 18 18 18 18 19 20 20 20 19 19 19 19 19 19 17 15 14 15 14 13 13 14 16 17 18 18 20 22 22 21 20 20 21 22 23 23 25 25 24 23 24 24 23
8 9 10 11 12 11 10 10 11 13 13 13 14 15 16 16 16 16 17 18 19 20 21 22 25 29 31 32 33 34 36 36 33 30 29 27 23 20 20 20 19 19 19 18 18 18 18 18 18 18 18 19 20 19 17 16 13 11 11 12 13 12 12 13 14 13 13 13 16 19 20 19 19 19 19 20 20 20 22 24 23 22 22 22 21
8 9 10 10 10 10 10 10 11 12 12 14 15 15 16 16 16 16 17 18 19 21 22 23 26 29 32 34 36 38 39 38 35 32 29 27 25 23 21 20 19 18 17 16 15 15 16 16 16 17 17 18 18 15 11 9 8 8 9 12 11 9 8 9 9 9 9 10 13 17 18 19 18 17 17 17 19 20 21 22 22 21 20 20 20
7 9 10 10 10 10 10 11 12 13 14 16 15 15 15 15 15 16 17 18 19 21 22 23 26 30 33 36 38 39 40 38 36 34 31 29 28 26 24 21 19 16 15 14 13 13 15 15 16 16 15 13 12 10 7 5 5 6 8 8 6 4 5 7 8 8 9 10 11 13 12 12 14 15 15 16 19 21 21 21 22 22 21 20 18
7 8 9 9 10 10 10 12 13 13 13 14 14 14 15 15 15 16 17 18 20 22 24 25 27 31 34 37 38 39 39 38 38 37 34 31 29 27 25 22 19 16 14 13 12 12 13 14 14 13 12 9 9 8 5 3 3 4 3 1 2 4 5 7 9 12 13 14 15 14 11 9 8 9 10 13 16 18 20 21 23 24 24 23 21
7 8 9 9 10 10 10 12 13 13 13 13 14 14 15 15 16 16 17 18 21 24 25 26 28 30 33 36 37 37 37 39 40 40 37 33 30 28 26 23 20 17 13 11 11 10 10 10 11 10 8 7 7 5 2 0 0 1 2 4 5 6 7 9 12 14 15 16 17 15 11 9 9 8 8 9 10 12 15 18 20 22 24 24 23
7 8 9 9 10 10 10 11 12 12 12 13 14 14 15 16 16 16 17 19 21 23 24 26 28 30 33 35 35 36 37 39 41 42 40 35 31 29 27 24 21 17 14 11 10 9 7 6 7 5 3 2 2 1 4 5 4 4 6 8 9 10 11 12 12 13 15 17 17 15 11 9 8 8 7 6 5 5 7 10 14 18 21 23 24
7 7 8 9 9 9 10 11 11 11 12 13 14 14 15 16 16 16 17 18 20 21 23 24 26 28 31 33 34 35 37 39 40 42 41 37 32 29 28 25 20 16 14 11 9 7 5 5 5 3 1 3 2 3 6 7 7 7 7 9 10 11 12 12 12 14 17 19 18 16 14 12 12 13 12 10 7 5 1 3 7 12 18 21 25
8 8 8 9 9 10 10 11 11 11 11 13 13 14 15 16 16 16 17 18 19 20 21 23 24 26 29 32 33 34 37 39 40 41 42 39 34 30 29 27 21 16 14 12 8 6 4 3 3 3 1 1 3 5 7 9 8 7 7 9 10 10 11 11 13 15 18 20 21 20 19 17 16 17 17 16 14 13 12 10 10 13 18 23 26
8 8 8 9 9 10 10 11 11 11 11 12 13 13 15 16 16 16 18 19 19 19 20 22 23 25 28 30 32 33 36 38 40 41 41 40 36 33 32 31 26 20 15 11 8 5 4 3 2 1 1 2 5 8 10 11 10 8 8 9 10 9 10 13 16 17 18 19 21 22 22 20 18 18 19 19 18 19 19 18 18 20 22 25 29
8 8 8 8 9 10 10 11 11 11 11 12 13 13 14 16 16 16 18 19 19 19 20 20 21 23 26 28 30 31 33 36 39 40 40 39 37 34 33 34 32 27 19 13 9 6 5 4 4 4 5 5 7 10 12 12 10 8 7 8 9 9 10 13 17 17 17 18 19 19 20 21 21 20 20 20 20 22 22 22 23 25 27 29 31
Wind_Direction
195 200 202 215 228 233 244 259 272 264 261 263 253 256 266 266 258 260 268 275 279 289 301 309 312 312 309 302 291 285 282 280 278 277 278 276 274 274 271 266 264 265 264 262 260 260 261 261 261 260 260 261 262 262 261 260 259 258 257 254 251 251 250 251 255 261 264 261 259 260 261 258 255 255 256 256 257 256 254 251 252 255 257 257 258
202 204 207 219 228 222 227 246 268 268 259 265 269 268 270 267 262 268 279 285 292 300 306 306 302 302 304 304 298 292 288 286 285 282 280 275 272 273 273 272 270 269 270 268 264 263 261 260 261 261 260 259 258 258 257 256 255 255 255 255 255 253 252 253 257 260 263 262 261 260 259 259 260 261 259 253 256 261 257 250 250 257 258 256 258
195 197 203 217 228 225 235 258 279 281 266 265 272 270 266 267 269 275 278 284 297 304 302 299 297 303 312 316 311 301 291 285 283 281 280 278 277 275 272 269 269 269 270 271 270 267 264 261 260 260 259 258 255 254 255 255 254 254 254 254 255 256 257 258 258 259 261 262 261 261 260 259 259 264 262 253 255 263 260 250 248 253 259 259 257
190 188 201 217 229 235 255 279 294 291 271 262 272 272 267 267 269 274 279 284 291 295 296 297 298 308 321 321 312 304 295 285 281 277 277 278 279 279 278 274 271 271 271 271 271 269 266 263 262 260 259 258 258 256 256 256 255 255 255 254 254 255 257 259 258 258 260 261 260 260 260 259 260 262 261 256 259 263 260 255 252 247 248 255 257
211 209 213 225 238 254 274 287 295 292 272 259 268 269 265 267 271 278 282 280 281 287 294 297 297 303 311 312 310 309 301 289 281 276 275 278 279 279 280 279 275 272 270 269 269 267 266 264 263 262 260 259 259 259 258 257 256 255 255 256 256 256 256 258 259 260 260 260 262 264 265 267 269 267 261 258 261 262 260 262 260 252 244 246 253
233 244 231 231 245 271 285 289 291 287 271 260 263 266 269 274 279 283 283 282 286 292 295 297 298 298 301 307 310 309 302 293 285 278 274 275 276 275 275 276 275 273 271 268 266 265 264 264 264 262 260 259 259 259 258 258 257 256 255 255 257 258 257 258 258 259 261 262 263 265 267 271 275 275 269 262 259 259 262 263 262 258 249 244 248
245 263 247 239 255 281 290 290 292 286 275 272 276 279 282 284 285 285 282 282 287 291 293 296 298 298 299 304 308 308 304 297 289 283 278 276 273 272 273 273 273 273 271 269 268 266 264 264 264 263 261 260 259 257 257 258 257 257 256 255 256 257 258 259 260 260 262 265 264 263 264 267 270 272 271 267 262 260 261 260 259 258 253 247 243
252 271 253 248 268 295 304 303 303 301 294 293 294 294 293 291 288 284 280 282 287 289 291 292 293 295 296 298 304 306 301 296 294 290 284 279 275 271 270 271 272 272 272 272 270 269 267 266 265 264 262 261 259 258 256 256 257 256 256 255 254 254 254 256 258 258 259 261 262 262 263 264 265 266 267 266 263 262 261 260 258 257 256 252 245
253 269 262 264 283 306 317 313 310 308 302 300 299 299 297 295 291 286 283 286 289 290 291 292 292 295 294 292 295 297 294 293 290 283 281 283 280 273 267 266 269 271 272 272 271 271 270 268 267 265 264 263 263 262 260 259 259 258 258 258 257 256 256 255 255 255 258 260 260 260 261 261 261 262 262 260 260 261 261 260 261 260 259 256 251
253 265 267 278 293 310 320 318 314 308 302 300 299 299 300 298 294 290 289 289 289 289 289 290 295 300 298 292 291 291 292 289 279 273 280 286 284 280 274 269 269 270 270 272 272 271 271 270 269 268 267 267 266 265 263 261 260 260 260 260 260 260 261 261 258 257 258 259 259 260 260 260 260 259 258 259 260 262 262 262 264 263 261 259 256
249 263 270 284 296 307 318 320 317 311 304 301 301 299 299 298 296 294 293 291 290 288 288 292 299 304 301 292 287 287 287 285 279 277 283 287 285 284 282 276 272 271 272 273 274 273 273 272 271 270 269 269 269 268 266 263 260 259 259 259 259 260 261 262 261 260 260 259 259 260 260 261 261 259 259 261 261 262 264 263 264 263 261 259 258
247 264 272 281 292 303 312 316 314 310 307 305 303 302 301 301 299 297 297 296 294 294 297 300 304 304 297 288 286 285 284 283 279 278 283 287 284 282 281 279 275 273 273 273 274 274 275 273 271 269 268 268 269 269 269 267 264 261 259 259 261 261 260 260 260 260 261 262 263 262 261 262 262 261 261 262 262 263 264 264 265 266 265 264 263
246 264 271 277 289 299 307 312 312 311 311 308 305 305 304 303 301 300 300 300 301 303 305 305 304 299 291 287 286 284 282 279 276 277 285 292 288 281 277 276 275 273 271 271 272 273 274 274 272 269 266 266 268 269 269 270 268 267 264 261 261 261 259 259 259 259 260 262 263 262 261 261 263 263 262 261 262 263 263 264 264 264 266 269 269
247 265 271 277 289 298 305 311 312 313 312 309 307 306 305 304 303 302 303 305 307 308 306 303 299 293 288 286 286 283 282 279 275 278 288 298 295 285 277 274 273 273 272 272 272 272 272 272 272 269 265 264 265 267 269 271 271 270 269 265 262 261 260 259 259 259 259 259 260 261 261 261 263 264 264 264 265 266 266 265 265 265 268 271 272
251 268 274 282 292 300 307 311 313 313 311 310 310 308 307 306 305 305 306 308 310 309 305 301 296 292 288 286 285 283 283 281 278 282 293 300 297 289 283 277 273 272 272 272 270 269 269 270 270 269 266 264 262 263 266 268 269 269 268 266 264 263 262 261 260 260 261 260 261 261 260 259 259 261 261 262 263 264 265 266 267 269 270 271 272
256 269 276 286 296 303 309 312 312 312 312 312 312 310 308 307 307 307 308 310 310 309 304 300 294 290 287 286 285 284 284 282 282 288 297 300 296 291 285 279 274 271 270 269 268 267 268 269 270 268 266 264 262 262 264 265 267 267 267 267 266 265 263 263 262 261 260 260 260 261 261 260 259 258 259 260 259 261 264 267 268 268 268 269 270
260 271 280 290 300 307 311 312 312 312 313 313 311 309 309 308 308 309 309 308 307 306 302 297 293 289 286 286 285 284 284 284 286 290 293 293 291 289 283 279 276 273 270 270 270 270 270 268 268 268 267 265 264 265 267 268 268 268 268 268 268 267 266 265 264 262 260 259 259 261 262 263 263 262 262 261 261 261 262 264 264 265 265 266 267
263 273 284 295 304 309 311 310 311 312 311 310 308 307 307 308 309 310 307 303 302 304 302 297 293 291 288 287 286 285 286 288 291 292 290 287 286 287 284 280 278 276 276 274 273 273 272 269 268 268 266 266 267 269 270 271 270 268 267 268 268 267 268 268 267 265 263 261 260 261 262 262 263 263 263 262 260 259 258 258 259 260 261 262 263
266 278 292 301 306 308 308 309 310 309 306 305 305 306 307 308 310 310 306 302 301 300 297 294 293 292 290 289 288 287 288 289 289 287 284 283 284 285 284 282 279 278 278 277 276 275 274 273 272 271 270 269 269 269 268 268 267 265 265 268 269 267 267 268 267 267 267 263 259 259 262 263 263 263 264 263 261 258 255 256 257 257 258 260 261
274 289 299 303 304 306 307 308 306 303 303 303 305 308 311 311 311 309 305 302 299 297 295 295 294 293 292 290 288 287 286 286 283 279 279 282 284 283 283 283 282 282 281 279 278 277 275 275 275 274 274 273 271 269 267 264 262 261 261 263 265 266 267 267 266 266 267 264 259 258 261 265 266 266 265 264 262 258 255 253 253 254 256 256 257
287 296 300 301 303 305 305 303 301 301 304 307 311 314 314 311 308 305 302 299 297 296 296 297 295 293 292 290 288 286 285 284 283 281 283 287 290 288 286 284 283 283 281 278 278 279 279 278 276 275 274 273 271 271 270 268 265 263 259 258 259 260 262 264 265 265 265 265 266 266 264 264 264 264 264 263 261 260 258 257 256 255 254 254 255
294 297 300 301 302 303 302 303 305 307 310 314 316 316 312 307 305 303 301 299 297 296 297 297 296 295 294 294 292 290 288 287 287 287 288 291 293 294 292 287 283 281 280 280 281 281 280 278 276 275 274 273 272 270 269 268 267 265 262 260 259 259 260 262 263 264 264 265 267 268 265 262 260 259 259 259 259 260 262 264 264 260 256 256 256
297 300 301 301 302 304 307 310 313 314 315 317 316 312 307 305 305 304 302 300 298 298 297 297 296 296 297 297 296 293 291 291 291 290 290 291 292 294 294 291 286 283 282 284 283 279 278 278 276 275 274 273 272 271 272 272 271 270 268 265 262 261 261 261 260 260 261 263 263 263 262 260 259 258 258 258 259 259 259 262 264 263 261 260 259
302 303 302 304 308 311 313 317 319 317 316 316 314 311 309 309 310 309 308 306 303 301 298 297 296 296 297 298 296 294 295 295 293 291 292 293 294 295 295 291 286 282 280 280 281 280 277 274 273 273 272 272 272 272 272 273 274 276 275 271 267 262 260 259 259 258 258 259 259 261 261 260 259 259 259 260 261 259 258 258 259 260 261 261 260
302 303 306 311 314 315 317 321 319 315 312 312 313 313 313 313 313 313 312 311 308 306 304 301 297 295 295 295 294 295 297 297 296 296 297 296 294 293 293 289 285 284 282 282 283 282 278 274 272 271 271 271 271 272 271 270 272 278 280 275 269 263 259 256 255 254 254 255 256 258 259 260 260 261 261 261 261 260 260 259 259 260 260 261 262
308 310 312 315 314 313 316 319 316 314 314 315 316 315 315 314 313 313 315 316 314 310 309 308 305 299 295 294 295 297 297 296 297 297 296 294 290 287 288 287 286 287 288 290 290 286 281 276 273 272 272 272 272 271 269 265 267 275 279 274 268 263 259 255 253 251 251 252 254 255 256 258 260 262 262 261 260 258 259 260 261 261 260 261 262
318 316 312 312 312 314 317 319 320 321 321 318 318 317 315 314 314 314 316 317 316 314 312 311 309 305 300 298 298 297 295 294 296 296 294 291 288 286 285 286 288 291 292 293 292 288 284 280 275 273 276 277 275 272 269 266 266 270 274 271 267 264 260 256 254 252 250 250 252 254 255 256 258 260 260 260 260 260 258 257 259 261 261 261 261
317 317 312 313 317 321 323 323 322 323 321 319 320 319 315 313 313 313 315 316 315 315 311 307 307 306 303 301 299 297 295 295 295 293 289 288 288 288 288 288 290 290 289 289 289 287 286 286 282 280 280 280 277 275 272 267 265 264 265 263 262 262 260 256 252 249 247 248 250 251 252 253 254 255 256 256 257 258 256 255 257 259 258 257 256
320 322 318 319 323 324 325 323 321 322 322 322 321 317 314 312 310 311 312 310 311 313 308 303 303 302 300 298 297 295 295 294 288 285 285 287 289 290 290 290 289 288 288 289 288 286 286 286 285 282 281 278 275 273 269 265 261 261 261 260 259 260 258 253 249 246 245 245 246 248 249 251 252 253 253 253 254 257 257 256 256 256 256 255 255
323 323 322 323 323 324 327 326 323 324 324 322 320 317 314 313 314 316 314 310 313 318 314 306 304 302 299 297 295 291 289 288 288 290 293 295 296 295 294 293 292 291 291 291 289 286 285 285 282 279 277 274 271 269 266 261 258 257 257 258 260 262 259 255 252 250 246 244 245 248 248 250 251 251 250 251 253 254 254 254 254 255 255 256 256
323 322 324 323 322 325 330 327 324 325 325 322 320 317 316 317 319 317 314 311 315 321 323 321 319 313 304 298 296 296 295 293 295 302 306 306 305 303 301 298 295 293 292 291 288 287 286 283 279 276 274 272 270 269 265 259 255 255 255 256 257 258 259 259 255 250 245 244 248 250 250 249 249 248 247 249 251 252 252 252 252 254 255 254 254
323 323 324 323 323 328 330 324 322 325 324 321 318 317 319 320 319 317 314 314 315 321 331 337 337 331 321 309 301 303 306 306 308 313 315 314 313 310 306 300 296 294 292 289 287 287 287 284 281 280 278 274 270 268 264 259 256 256 257 257 256 256 258 260 256 249 246 247 249 251 252 251 250 250 250 249 250 251 252 250 248 251 255 256 255
323 321 324 327 328 330 328 324 323 324 323 319 318 319 321 322 320 319 319 319 319 322 330 335 336 334 329 322 313 312 314 316 316 316 313 311 311 310 305 300 297 296 294 289 287 289 289 287 287 289 285 277 271 270 266 262 260 260 258 257 258 258 259 259 256 248 246 247 248 249 252 253 252 253 252 249 249 251 252 252 253 252 253 255 254
325 323 328 334 337 332 326 324 323 324 322 319 319 322 323 323 323 322 321 322 324 326 328 331 331 328 325 324 323 321 319 317 314 310 307 308 309 307 303 300 299 299 294 287 287 291 292 290 292 293 285 276 272 271 268 265 263 262 260 259 259 259 260 261 258 251 247 247 247 249 253 254 253 251 249 248 250 252 252 254 256 254 250 249 251
326 325 328 334 334 326 322 323 324 323 320 320 322 322 322 324 325 322 321 322 324 325 327 328 328 324 323 325 326 323 317 314 311 308 309 311 312 309 304 302 304 304 297 287 286 291 293 292 293 291 284 280 278 274 269 267 265 264 264 263 262 261 260 259 257 254 252 250 248 248 251 253 251 249 248 248 252 254 254 256 258 253 247 248 252
323 323 324 326 325 321 321 322 322 319 319 321 322 319 319 322 323 321 321 323 325 326 327 327 327 325 324 324 326 325 322 320 320 319 318 318 316 311 305 302 302 305 302 292 286 287 290 289 287 283 279 278 278 276 272 270 270 269 269 267 265 263 260 257 255 255 254 251 248 247 250 251 250 249 247 247 251 253 254 256 256 250 245 248 252
321 322 321 322 323 324 325 324 321 321 324 325 321 319 319 321 321 322 325 328 329 328 328 327 328 328 326 326 331 333 330 329 330 329 328 325 321 312 304 298 296 297 296 291 287 287 288 288 286 284 281 276 274 277 281 279 275 272 271 269 265 262 261 260 260 258 254 251 249 251 253 254 253 251 248 247 250 251 251 252 252 249 247 248 250
321 320 320 327 332 333 331 325 321 324 327 324 321 322 322 322 323 326 329 332 331 330 329 329 330 330 328 329 335 338 337 336 337 336 334 329 321 310 301 295 289 286 285 287 288 287 286 286 286 285 284 281 277 280 288 288 279 270 269 271 270 267 268 269 267 260 256 255 254 256 258 258 257 255 252 251 251 250 249 249 249 249 248 247 248
325 321 322 330 338 339 334 329 326 326 326 325 326 327 326 326 327 329 332 334 332 331 332 332 332 330 326 330 338 343 342 342 342 340 336 331 321 309 303 298 292 289 287 285 285 285 283 286 288 284 281 280 278 279 286 290 282 271 267 270 271 270 271 271 267 261 261 262 262 261 261 259 257 255 253 253 253 251 248 246 246 246 245 242 243
329 325 324 331 339 341 338 333 328 325 327 330 332 330 330 331 332 333 336 336 334 333 334 333 332 333 335 341 347 348 345 343 343 340 335 330 321 312 308 303 297 294 291 286 285 285 283 283 286 284 281 281 281 281 285 288 283 274 268 268 267 265 264 266 266 265 265 264 263 263 262 260 259 257 253 252 252 248 242 239 240 243 243 240 240
335 332 330 334 341 345 340 330 326 329 333 335 335 334 337 339 336 335 339 339 336 335 333 330 333 341 348 351 352 349 347 348 348 342 335 329 321 314 311 306 300 295 291 288 286 284 282 284 286 288 289 290 290 289 287 284 280 274 271 272 270 265 264 268 272 273 273 273 273 272 267 260 256 255 252 252 252 247 242 238 236 237 241 241 239
340 341 338 337 341 342 336 330 334 337 338 340 342 343 346 345 339 336 338 339 337 335 332 332 338 347 352 355 355 354 354 355 354 347 341 335 327 318 313 309 305 300 296 293 289 286 286 288 288 290 294 297 298 296 289 280 276 276 276 277 276 274 276 281 283 283 282 282 282 281 274 263 256 254 253 252 251 248 245 241 237 235 237 237 235
347 345 342 341 342 341 338 339 343 344 346 352 353 350 348 346 341 337 338 338 337 335 334 335 342 350 355 359 360 359 358 357 356 354 350 343 336 329 322 316 314 311 304 300 296 292 291 290 290 292 296 298 301 304 298 282 278 285 285 285 287 293 301 304 300 297 294 292 292 290 282 267 256 253 253 252 250 248 246 244 240 237 236 236 235
351 343 341 343 344 342 342 347 351 354 358 360 355 347 345 345 341 340 341 339 338 339 340 341 348 356 0 2 2 0 359 358 359 359 357 351 345 341 335 328 326 322 315 309 303 296 293 292 292 294 295 294 297 304 304 289 287 292 292 294 309 335 338 327 323 329 338 343 340 329 309 281 261 253 250 249 249 247 244 242 240 238 235 233 233
343 342 345 346 345 344 346 351 355 358 358 355 349 345 346 345 342 343 343 339 339 345 350 354 359 2 3 1 1 1 1 1 2 3 1 355 349 345 342 338 334 330 324 320 314 304 295 292 291 293 293 291 289 286 281 284 295 289 279 303 11 3 354 0 9 10 9 8 7 2 351 333 312 286 266 258 254 250 246 244 242 241 239 236 233
339 343 346 346 346 347 348 349 354 357 355 351 349 349 347 346 346 346 343 340 343 351 357 1 4 5 3 2 2 2 4 6 6 6 6 2 355 349 348 347 343 338 333 327 322 313 299 290 291 295 295 292 290 283 264 189 233 195 128 82 55 36 33 34 27 18 14 14 15 13 6 357 352 341 318 296 279 264 254 246 238 234 234 232 227
342 341 341 345 347 347 345 346 351 354 353 350 350 350 349 349 349 347 342 341 345 352 359 5 9 8 5 3 2 3 6 9 9 7 9 8 2 355 353 352 348 344 342 337 329 323 308 286 286 298 313 328 327 14 108 116 131 131 102 77 64 52 42 35 29 27 28 28 26 24 20 15 15 18 8 347 324 290 265 250 234 224 221 220 219
342 339 339 344 347 345 345 347 349 351 350 349 350 351 352 353 352 347 344 344 345 350 358 7 11 9 6 4 3 3 6 9 8 7 9 11 9 3 359 356 352 351 354 352 339 326 313 290 281 289 75 88 82 111 124 127 131 123 97 74 62 50 38 35 41 45 41 36 34 35 40 43 45 48 50 48 46 51 78 212 208 203 203 204 206
341 340 341 344 345 345 348 350 350 349 348 349 350 351 353 355 353 348 348 350 349 350 356 3 5 6 7 6 4 4 6 8 8 8 9 11 15 17 14 9 6 5 5 5 0 351 344 330 301 287 269 119 113 122 127 130 129 118 91 70 61 51 43 48 57 57 50 45 43 45 51 54 50 47 51 57 63 69 80 97 124 150 163 167 169
338 339 341 341 342 345 349 350 350 349 348 350 352 353 354 356 354 350 353 356 355 353 357 1 1 4 9 9 6 5 7 8 9 10 10 12 18 26 27 24 22 21 18 15 19 23 20 14 360 299 207 154 128 124 129 132 128 110 84 73 74 67 56 59 66 67 62 56 53 53 57 61 58 53 54 63 72 76 79 87 101 118 130 136 139
339 337 339 340 341 344 347 349 350 350 350 352 355 355 354 356 357 355 356 360 359 358 0 3 2 5 10 10 7 7 9 10 10 11 12 14 20 30 35 35 33 33 31 27 30 41 51 61 82 108 123 126 122 124 129 131 124 106 87 84 88 81 63 57 63 68 68 66 63 61 60 61 62 62 60 64 74 80 81 85 94 104 111 117 123
Height
1544 1545 1545 1545 1545 1545 1545 1545 1544 1544 1544 1544 1544 1544 1543 1542 1542 1541 1540 1540 1538 1537 1536 1535 1534 1532 1531 1531 1530 1529 1528 1527 1526 1525 1524 1524 1523 1522 1522 1521 1521 1520 1520 1520 1519 1519 1519 1518 1518 1518 1518 1517 1517 1517 1517 1517 1516 1515 1514 1514 1513 1513 1512 1512 1511 1511 1511 1512 1512 1513 1513 1513 1512 1512 1513 1514 1514 1514 1515 1515 1516 1516 1517 1516 1515
1544 1544 1544 1544 1544 1544 1545 1544 1544 1543 1543 1543 1543 1543 1543 1542 1541 1540 1539 1539 1537 1536 1536 1535 1533 1532 1530 1529 1528 1527 1525 1524 1524 1523 1523 1522 1521 1520 1520 1519 1519 1518 1518 1517 1517 1517 1517 1516 1516 1516 1516 1515 1515 1515 1515 1515 1514 1513 1512 1512 1511 1510 1510 1509 1509 1509 1509 1509 1509 1509 1510 1510 1510 1509 1510 1510 1511 1511 1511 1512 1513 1513 1514 1514 1513
1543 1543 1543 1543 1543 1543 1544 1543 1543 1542 1542 1543 1543 1542 1542 1541 1540 1539 1538 1538 1537 1536 1535 1534 1532 1530 1528 1527 1526 1525 1524 1523 1522 1521 1521 1520 1519 1518 1518 1517 1516 1516 1515 1515 1514 1514 1514 1513 1513 1513 1514 1513 1512 1512 1512 1512 1512 1512 1511 1510 1509 1508 1508 1507 1506 1506 1506 1506 1507 1507 1507 1507 1506 1506 1506 1507 1507 1507 1507 1508 1509 1510 1511 1511 1511
1543 1542 1542 1543 1543 1543 1543 1542 1542 1541 1541 1542 1541 1541 1540 1539 1538 1537 1536 1536 1536 1535 1534 1532 1530 1528 1526 1525 1524 1523 1522 1521 1520 1519 1518 1518 1517 1516 1515 1515 1514 1514 1513 1513 1512 1512 1511 1510 1510 1510 1511 1510 1509 1509 1509 1509 1510 1509 1509 1508 1507 1506 1505 1504 1504 1503 1503 1503 1504 1504 1504 1504 1503 1503 1503 1503 1503 1504 1504 1504 1505 1506 1508 1508 1508
1542 1542 1542 1542 1542 1542 1541 1541 1541 1540 1540 1540 1540 1539 1539 1538 1537 1535 1534 1534 1533 1533 1532 1530 1529 1527 1525 1524 1523 1521 1520 1519 1518 1517 1516 1515 1515 1514 1513 1512 1512 1511 1511 1510 1510 1509 1508 1508 1508 1508 1508 1507 1507 1507 1507 1507 1507 1506 1506 1506 1505 1504 1503 1502 1501 1501 1501 1501 1501 1501 1501 1500 1499 1500 1500 1500 1500 1500 1500 1501 1501 1502 1504 1505 1504
1541 1541 1541 1541 1540 1540 1540 1540 1539 1539 1538 1538 1538 1537 1536 1535 1534 1533 1533 1532 1531 1530 1530 1529 1527 1526 1524 1522 1521 1519 1518 1517 1516 1515 1514 1513 1512 1512 1511 1510 1509 1508 1508 1507 1507 1506 1506 1505 1505 1505 1505 1504 1504 1504 1504 1504 1503 1503 1503 1503 1503 1502 1501 1500 1499 1498 1498 1497 1498 1498 1497 1497 1496 1496 1497 1497 1497 1497 1497 1498 1498 1499 1500 1500 1501
1540 1540 1540 1539 1539 1539 1539 1539 1538 1538 1537 1537 1536 1535 1534 1533 1532 1532 1531 1530 1529 1528 1528 1527 1525 1524 1522 1520 1519 1517 1516 1514 1513 1512 1511 1510 1510 1509 1508 1507 1507 1506 1505 1504 1504 1503 1503 1503 1502 1502 1502 1501 1501 1501 1501 1501 1500 1500 1500 1500 1500 1499 1498 1497 1497 1496 1495 1495 1495 1495 1494 1494 1494 1494 1494 1494 1494 1494 1494 1494 1495 1496 1496 1496 1497
1538 1539 1538 1538 1538 1537 1537 1537 1537 1536 1536 1535 1534 1533 1532 1532 1531 1530 1529 1528 1527 1526 1525 1525 1523 1522 1520 1519 1517 1515 1514 1512 1511 1511 1510 1508 1508 1506 1506 1505 1504 1503 1503 1502 1501 1501 1500 1500 1499 1499 1499 1498 1498 1498 1497 1497 1497 1496 1496 1496 1496 1495 1495 1494 1494 1493 1492 1492 1492 1492 1492 1492 1491 1491 1492 1492 1491 1491 1491 1492 1491 1492 1493 1493 1494
1537 1537 1537 1537 1537 1536 1536 1536 1535 1534 1534 1533 1532 1531 1530 1530 1529 1528 1527 1526 1525 1524 1523 1522 1520 1519 1518 1517 1515 1514 1512 1511 1510 1509 1507 1506 1505 1504 1503 1502 1501 1501 1500 1499 1499 1498 1497 1497 1496 1496 1496 1495 1495 1494 1494 1494 1493 1493 1493 1493 1492 1492 1491 1491 1491 1490 1490 1489 1489 1490 1489 1489 1489 1489 1489 1489 1488 1488 1489 1489 1488 1488 1489 1489 1490
1535 1536 1536 1535 1535 1535 1534 1534 1533 1533 1532 1531 1530 1529 1528 1528 1527 1526 1525 1524 1523 1522 1521 1520 1518 1517 1515 1514 1513 1512 1510 1509 1508 1506 1505 1503 1502 1501 1500 1499 1499 1498 1497 1496 1496 1495 1494 1494 1493 1493 1492 1492 1491 1491 1491 1490 1490 1490 1489 1489 1489 1489 1488 1488 1488 1487 1487 1486 1486 1486 1486 1486 1486 1486 1486 1486 1486 1486 1486 1486 1485 1485 1486 1485 1486
1534 1535 1535 1534 1534 1533 1533 1532 1532 1531 1530 1529 1528 1528 1527 1526 1525 1524 1523 1522 1521 1520 1519 1517 1516 1514 1513 1512 1511 1509 1508 1507 1505 1503 1502 1501 1500 1499 1497 1497 1496 1495 1495 1494 1493 1492 1492 1491 1490 1489 1489 1488 1488 1487 1487 1486 1486 1486 1485 1485 1485 1485 1485 1485 1484 1484 1484 1483 1483 1483 1483 1483 1483 1483 1483 1483 1483 1483 1483 1483 1483 1482 1483 1482 1483
1533 1533 1533 1533 1532 1532 1531 1531 1530 1529 1528 1528 1527 1526 1525 1524 1523 1522 1521 1520 1519 1517 1516 1515 1513 1511 1510 1509 1508 1507 1506 1504 1502 1500 1499 1498 1497 1496 1495 1494 1493 1493 1492 1491 1490 1489 1488 1488 1487 1486 1486 1485 1484 1484 1483 1483 1482 1482 1481 1481 1481 1481 1481 1481 1481 1481 1481 1480 1479 1480 1479 1479 1480 1480 1480 1480 1480 1480 1480 1480 1480 1479 1479 1480 1480
1532 1532 1532 1531 1531 1530 1530 1529 1528 1527 1526 1526 1525 1524 1523 1522 1521 1520 1519 1517 1516 1514 1513 1512 1510 1509 1508 1507 1505 1504 1503 1502 1499 1497 1496 1496 1495 1493 1492 1491 1490 1489 1489 1488 1487 1486 1485 1484 1483 1483 1482 1482 1481 1480 1480 1479 1478 1478 1477 1477 1477 1477 1476 1476 1477 1477 1477 1477 1476 1475 1476 1476 1476 1476 1477 1477 1477 1477 1477 1477 1477 1476 1476 1476 1477
1530 1530 1530 1529 1529 1528 1528 1527 1526 1525 1524 1524 1523 1522 1521 1520 1518 1517 1516 1515 1513 1511 1510 1509 1507 1506 1505 1504 1502 1501 1499 1498 1496 1494 1493 1493 1492 1490 1489 1488 1487 1486 1485 1485 1484 1483 1482 1481 1480 1479 1479 1478 1478 1477 1476 1476 1475 1474 1474 1473 1473 1473 1472 1472 1472 1472 1473 1472 1472 1471 1472 1473 1472 1473 1474 1474 1474 1473 1473 1474 1474 1473 1473 1473 1473
1529 1528 1528 1528 1527 1527 1526 1525 1524 1523 1522 1521 1520 1519 1518 1517 1516 1515 1513 1512 1510 1508 1507 1506 1504 1503 1502 1500 1499 1497 1496 1495 1493 1491 1490 1489 1488 1487 1486 1485 1484 1483 1482 1481 1480 1480 1479 1478 1477 1476 1475 1475 1475 1474 1473 1472 1471 1471 1470 1469 1469 1469 1468 1468 1468 1468 1468 1468 1467 1467 1468 1469 1469 1469 1470 1471 1470 1470 1470 1470 1470 1470 1469 1469 1469
1527 1526 1526 1526 1525 1525 1524 1523 1522 1521 1520 1519 1518 1517 1516 1515 1513 1512 1510 1509 1507 1506 1504 1503 1501 1500 1499 1497 1496 1494 1493 1491 1490 1488 1486 1485 1485 1483 1482 1481 1481 1480 1479 1478 1477 1476 1476 1475 1474 1473 1472 1471 1471 1471 1470 1469 1468 1467 1467 1466 1466 1465 1465 1464 1465 1464 1464 1464 1464 1463 1464 1464 1465 1465 1466 1466 1466 1466 1467 1466 1466 1466 1466 1465 1465
1525 1525 1525 1524 1523 1523 1522 1521 1520 1519 1518 1517 1516 1515 1514 1512 1511 1509 1508 1506 1505 1503 1501 1499 1498 1497 1495 1494 1493 1491 1489 1488 1486 1484 1483 1482 1481 1479 1479 1478 1477 1476 1475 1474 1473 1472 1472 1471 1470 1469 1469 1468 1468 1467 1467 1466 1465 1465 1464 1463 1462 1462 1461 1461 1461 1460 1460 1460 1460 1459 1459 1460 1460 1461 1462 1462 1462 1463 1463 1462 1462 1463 1463 1462 1461
1523 1523 1523 1522 1522 1521 1520 1519 1518 1517 1516 1515 1514 1513 1511 1510 1509 1507 1505 1504 1502 1500 1498 1496 1495 1493 1492 1490 1489 1487 1485 1484 1482 1480 1479 1478 1477 1476 1475 1475 1473 1472 1471 1470 1470 1469 1468 1467 1466 1466 1465 1464 1464 1464 1463 1463 1462 1462 1461 1460 1459 1458 1458 1458 1458 1457 1457 1456 1455 1455 1455 1455 1456 1456 1457 1457 1458 1459 1459 1458 1459 1460 1459 1458 1458
1521 1521 1521 1520 1520 1519 1518 1517 1516 1515 1514 1513 1512 1511 1509 1508 1506 1504 1502 1501 1499 1497 1495 1494 1492 1490 1488 1486 1485 1483 1481 1480 1479 1477 1475 1474 1474 1472 1472 1471 1470 1469 1468 1467 1466 1465 1464 1463 1462 1461 1461 1460 1460 1460 1459 1459 1458 1458 1457 1456 1455 1454 1455 1455 1454 1453 1453 1452 1451 1450 1451 1451 1451 1452 1452 1453 1453 1454 1453 1453 1455 1455 1455 1454 1455
1520 1520 1519 1519 1518 1517 1516 1516 1514 1513 1512 1511 1510 1508 1507 1505 1503 1501 1500 1498 1496 1494 1492 1491 1489 1487 1485 1483 1482 1480 1478 1477 1476 1474 1472 1472 1471 1470 1469 1468 1467 1466 1465 1464 1462 1461 1460 1460 1458 1458 1457 1456 1456 1456 1455 1455 1454 1453 1453 1452 1451 1451 1451 1451 1450 1449 1449 1449 1447 1446 1447 1447 1447 1447 1448 1448 1448 1448 1448 1449 1450 1450 1450 1450 1451
1518 1518 1518 1517 1517 1516 1515 1514 1513 1511 1510 1509 1507 1506 1504 1502 1501 1499 1497 1496 1494 1492 1489 1488 1486 1484 1482 1480 1478 1477 1475 1474 1473 1471 1470 1469 1468 1467 1466 1465 1464 1463 1461 1460 1459 1458 1457 1456 1455 1454 1453 1452 1452 1451 1451 1451 1450 1449 1448 1448 1447 1447 1447 1446 1446 1446 1445 1444 1444 1443 1444 1444 1444 1443 1444 1444 1443 1443 1444 1444 1445 1445 1445 1445 1446
1517 1517 1516 1516 1515 1514 1513 1512 1511 1509 1508 1506 1505 1503 1501 1500 1498 1497 1495 1493 1491 1489 1487 1485 1483 1481 1479 1478 1476 1474 1473 1471 1470 1468 1467 1466 1465 1464 1463 1462 1461 1460 1458 1457 1456 1455 1453 1452 1451 1450 1449 1448 1447 1447 1446 1446 1445 1444 1444 1443 1443 1443 1443 1442 1442 1442 1441 1441 1441 1440 1440 1440 1440 1440 1440 1440 1440 1440 1440 1439 1440 1441 1440 1440 1441
1516 1515 1514 1514 1513 1512 1511 1510 1509 1507 1506 1504 1503 1501 1499 1498 1496 1494 1493 1491 1489 1487 1485 1483 1481 1479 1477 1475 1473 1472 1470 1469 1467 1466 1465 1463 1462 1461 1460 1459 1457 1456 1455 1453 1452 1451 1450 1448 1447 1446 1444 1443 1442 1442 1441 1441 1440 1439 1439 1439 1439 1438 1438 1437 1437 1437 1437 1437 1437 1436 1436 1436 1436 1436 1436 1436 1436 1437 1436 1436 1436 1436 1435 1436 1437
1514 1513 1513 1512 1511 1510 1509 1508 1507 1505 1503 1502 1501 1499 1498 1496 1494 1493 1491 1489 1486 1484 1483 1481 1479 1477 1475 1473 1471 1469 1468 1466 1465 1464 1462 1461 1459 1458 1457 1455 1454 1453 1452 1450 1448 1447 1445 1444 1442 1440 1439 1438 1437 1437 1436 1435 1435 1434 1434 1434 1433 1433 1433 1432 1432 1433 1433 1433 1432 1432 1432 1432 1432 1432 1432 1432 1432 1433 1433 1432 1432 1431 1431 1432 1432
1513 1512 1512 1511 1510 1509 1507 1506 1505 1504 1502 1501 1499 1498 1496 1494 1492 1491 1489 1487 1485 1483 1481 1479 1477 1475 1473 1471 1469 1467 1465 1464 1463 1461 1460 1458 1457 1455 1453 1452 1450 1449 1447 1446 1444 1442 1440 1438 1436 1434 1433 1432 1431 1431 1430 1430 1430 1429 1429 1428 1428 1427 1427 1426 1427 1428 1428 1428 1428 1428 1427 1427 1428 1428 1428 1428 1428 1428 1428 1428 1427 1427 1428 1428 1428
1511 1511 1510 1510 1509 1508 1506 1505 1504 1502 1501 1500 1498 1496 1495 1493 1491 1489 1487 1485 1483 1481 1479 1477 1475 1473 1470 1468 1466 1465 1463 1461 1460 1459 1457 1456 1454 1452 1450 1448 1447 1445 1443 1441 1439 1437 1435 1433 1431 1429 1428 1427 1426 1425 1424 1424 1425 1424 1423 1423 1422 1421 1421 1421 1421 1422 1423 1423 1423 1423 1423 1423 1424 1424 1424 1424 1423 1423 1424 1424 1424 1423 1424 1423 1423
1511 1510 1510 1509 1508 1507 1505 1504 1502 1501 1500 1498 1497 1495 1493 1491 1490 1488 1486 1484 1482 1479 1477 1475 1473 1471 1469 1466 1464 1463 1461 1459 1458 1456 1454 1452 1451 1449 1447 1446 1444 1442 1439 1438 1435 1433 1430 1428 1426 1424 1422 1421 1420 1419 1419 1419 1419 1419 1418 1418 1417 1416 1416 1416 1416 1417 1418 1418 1418 1418 1419 1419 1419 1419 1419 1419 1419 1419 1420 1420 1419 1419 1420 1420 1419
1510 1509 1509 1508 1507 1505 1504 1502 1501 1500 1499 1497 1495 1494 1492 1490 1488 1486 1484 1483 1480 1478 1476 1473 1471 1469 1467 1464 1463 1461 1459 1458 1456 1453 1451 1449 1447 1445 1444 1442 1440 1438 1435 1433 1431 1429 1426 1423 1421 1419 1417 1416 1415 1414 1414 1414 1414 1414 1413 1413 1413 1412 1411 1411 1411 1412 1413 1413 1414 1414 1414 1415 1415 1415 1415 1415 1415 1415 1415 1416 1415 1415 1416 1416 1415
1508 1508 1508 1507 1506 1504 1503 1501 1500 1499 1497 1495 1494 1492 1490 1488 1486 1484 1483 1481 1479 1476 1474 1471 1469 1468 1465 1463 1461 1458 1457 1455 1453 1450 1448 1446 1444 1442 1439 1437 1436 1433 1431 1429 1426 1424 1421 1419 1416 1414 1412 1411 1410 1410 1410 1409 1409 1409 1409 1408 1408 1408 1407 1407 1407 1407 1408 1408 1408 1409 1409 1410 1410 1410 1411 1410 1410 1411 1411 1411 1411 1411 1412 1411 1411
1507 1508 1507 1506 1505 1503 1501 1500 1499 1497 1496 1494 1492 1490 1488 1486 1484 1482 1480 1478 1475 1473 1471 1469 1467 1465 1462 1460 1458 1456 1454 1451 1448 1446 1444 1441 1439 1437 1434 1432 1430 1427 1426 1424 1421 1418 1416 1413 1411 1409 1408 1407 1406 1405 1405 1405 1404 1404 1404 1404 1404 1403 1403 1402 1402 1403 1403 1404 1404 1404 1405 1405 1405 1406 1406 1406 1406 1407 1407 1407 1407 1407 1407 1407 1407
1506 1506 1506 1505 1503 1501 1500 1499 1497 1496 1494 1493 1491 1488 1485 1483 1482 1480 1477 1474 1472 1470 1468 1466 1464 1461 1459 1456 1454 1452 1449 1447 1445 1442 1439 1437 1434 1432 1429 1427 1424 1422 1420 1418 1415 1413 1411 1409 1407 1405 1404 1403 1402 1401 1401 1400 1400 1400 1400 1400 1399 1399 1398 1398 1398 1398 1399 1400 1400 1400 1400 1400 1400 1401 1401 1401 1402 1402 1403 1403 1404 1403 1403 1403 1403
1505 1505 1504 1503 1501 1499 1499 1498 1496 1495 1493 1491 1489 1486 1484 1481 1479 1477 1475 1472 1469 1467 1465 1463 1460 1458 1456 1453 1451 1448 1446 1444 1441 1438 1435 1432 1430 1427 1424 1421 1419 1417 1416 1413 1410 1408 1406 1404 1402 1401 1400 1399 1398 1398 1397 1397 1396 1396 1395 1395 1395 1394 1394 1394 1394 1394 1395 1396 1396 1396 1395 1395 1396 1396 1396 1397 1397 1398 1398 1399 1400 1399 1398 1399 1399
1504 1504 1503 1501 1499 1498 1498 1496 1495 1493 1491 1489 1487 1485 1483 1481 1478 1475 1472 1470 1467 1465 1462 1460 1458 1455 1453 1450 1448 1446 1443 1440 1437 1434 1431 1428 1425 1422 1418 1415 1413 1412 1411 1408 1406 1404 1402 1401 1399 1397 1397 1396 1395 1395 1394 1393 1393 1392 1392 1391 1391 1390 1390 1390 1390 1390 1390 1390 1392 1392 1392 1391 1391 1391 1392 1392 1393 1393 1393 1394 1394 1394 1394 1394 1394
1503 1502 1501 1499 1498 1498 1497 1495 1494 1492 1490 1488 1486 1483 1482 1480 1477 1474 1471 1468 1465 1463 1461 1459 1456 1453 1451 1448 1446 1443 1440 1437 1433 1430 1426 1423 1420 1417 1413 1410 1409 1408 1407 1404 1402 1400 1399 1397 1396 1395 1394 1393 1392 1392 1391 1390 1389 1389 1388 1388 1388 1387 1386 1386 1385 1386 1386 1386 1387 1388 1388 1388 1387 1388 1388 1388 1388 1389 1388 1389 1389 1390 1389 1390 1390
1503 1501 1500 1498 1498 1497 1496 1494 1492 1491 1489 1487 1484 1482 1480 1479 1477 1474 1471 1468 1465 1462 1460 1458 1455 1453 1450 1446 1443 1441 1437 1434 1430 1426 1422 1419 1415 1412 1409 1407 1405 1404 1403 1401 1399 1398 1396 1395 1393 1392 1391 1390 1389 1388 1388 1386 1386 1385 1385 1385 1384 1383 1383 1382 1382 1382 1382 1383 1383 1384 1385 1384 1383 1383 1384 1384 1384 1384 1384 1384 1385 1385 1385 1385 1385
1502 1501 1500 1499 1497 1496 1494 1492 1491 1489 1487 1485 1483 1481 1479 1477 1475 1472 1470 1468 1465 1462 1459 1456 1454 1451 1448 1445 1441 1438 1434 1430 1425 1421 1417 1414 1412 1409 1406 1404 1403 1401 1400 1398 1397 1395 1394 1393 1391 1390 1389 1388 1386 1385 1384 1383 1382 1382 1381 1381 1381 1380 1379 1379 1379 1379 1380 1380 1380 1380 1380 1379 1379 1379 1379 1380 1380 1380 1381 1381 1381 1381 1382 1382 1382
1501 1500 1499 1498 1496 1494 1493 1491 1490 1488 1486 1484 1482 1480 1478 1476 1474 1471 1469 1467 1464 1461 1458 1455 1452 1449 1445 1442 1438 1434 1429 1425 1421 1416 1413 1410 1408 1406 1404 1402 1400 1399 1397 1396 1394 1393 1392 1390 1389 1388 1386 1385 1384 1383 1382 1380 1379 1378 1378 1378 1377 1376 1376 1375 1375 1376 1376 1376 1376 1376 1375 1375 1375 1375 1375 1375 1376 1376 1377 1378 1378 1378 1378 1378 1379
1500 1499 1498 1496 1494 1493 1491 1490 1489 1487 1485 1483 1482 1480 1477 1475 1473 1470 1468 1466 1463 1460 1457 1454 1451 1447 1443 1439 1435 1431 1425 1421 1417 1413 1409 1407 1405 1403 1401 1399 1398 1396 1394 1393 1392 1390 1389 1388 1386 1385 1384 1383 1382 1380 1379 1378 1376 1375 1375 1374 1374 1373 1372 1372 1372 1373 1372 1372 1372 1372 1371 1371 1371 1371 1371 1370 1370 1371 1372 1374 1374 1375 1374 1375 1375
1499 1498 1496 1494 1493 1492 1490 1489 1488 1486 1485 1483 1481 1479 1476 1474 1472 1469 1467 1464 1462 1459 1456 1453 1450 1447 1443 1438 1433 1428 1422 1417 1413 1409 1406 1403 1401 1400 1398 1396 1394 1393 1391 1390 1389 1388 1386 1385 1384 1383 1381 1380 1379 1378 1376 1375 1373 1372 1372 1371 1370 1370 1370 1370 1369 1369 1369 1368 1368 1368 1368 1367 1367 1367 1367 1366 1366 1366 1367 1369 1370 1371 1371 1371 1371
1498 1497 1496 1493 1492 1491 1489 1488 1487 1486 1484 1482 1480 1478 1476 1473 1471 1468 1466 1464 1461 1458 1455 1452 1449 1446 1442 1437 1432 1426 1421 1416 1411 1407 1404 1401 1398 1396 1394 1392 1391 1389 1388 1387 1386 1385 1383 1382 1381 1380 1378 1377 1376 1375 1374 1372 1370 1369 1369 1369 1367 1367 1367 1367 1367 1366 1366 1365 1364 1364 1364 1363 1363 1363 1363 1362 1362 1362 1362 1364 1365 1366 1366 1366 1367
1497 1497 1495 1493 1491 1490 1489 1488 1487 1485 1483 1481 1479 1477 1475 1472 1470 1467 1465 1463 1460 1457 1454 1452 1448 1444 1440 1436 1431 1427 1421 1416 1410 1406 1402 1399 1396 1393 1391 1389 1388 1386 1384 1383 1382 1381 1380 1379 1377 1376 1375 1374 1374 1372 1371 1369 1367 1367 1366 1366 1366 1365 1364 1365 1364 1363 1363 1362 1361 1360 1359 1359 1359 1359 1359 1358 1358 1358 1359 1359 1360 1361 1362 1362 1363
1496 1495 1494 1493 1491 1490 1489 1488 1486 1483 1482 1480 1478 1476 1474 1471 1469 1467 1465 1462 1459 1456 1453 1450 1446 1442 1438 1434 1430 1425 1420 1415 1410 1405 1401 1397 1394 1391 1388 1386 1384 1382 1381 1380 1379 1377 1376 1375 1374 1374 1373 1372 1371 1370 1368 1367 1366 1365 1365 1365 1365 1363 1362 1362 1361 1360 1360 1360 1359 1358 1357 1356 1355 1354 1354 1354 1354 1354 1355 1355 1356 1357 1358 1358 1360
1496 1495 1493 1492 1490 1489 1488 1486 1484 1483 1481 1479 1477 1475 1473 1471 1469 1467 1464 1462 1459 1455 1452 1448 1445 1441 1437 1433 1428 1423 1419 1414 1410 1405 1400 1396 1392 1389 1386 1383 1381 1379 1378 1377 1375 1374 1373 1372 1372 1371 1370 1370 1369 1368 1366 1366 1366 1365 1365 1365 1364 1362 1361 1361 1361 1360 1359 1358 1357 1355 1354 1352 1351 1350 1351 1351 1351 1351 1352 1353 1353 1354 1355 1356 1357
1495 1494 1493 1492 1490 1489 1487 1485 1484 1482 1480 1478 1476 1475 1473 1471 1469 1467 1464 1462 1459 1455 1451 1448 1445 1441 1437 1432 1427 1423 1418 1414 1409 1404 1399 1394 1390 1387 1383 1380 1378 1376 1375 1374 1373 1372 1371 1370 1369 1368 1368 1367 1367 1366 1365 1365 1365 1365 1365 1364 1363 1362 1361 1361 1361 1360 1358 1357 1355 1353 1350 1348 1347 1347 1347 1347 1347 1348 1349 1349 1350 1351 1352 1353 1354
1495 1494 1493 1491 1490 1488 1486 1485 1483 1481 1480 1478 1477 1475 1473 1471 1469 1466 1464 1461 1458 1455 1451 1448 1444 1441 1437 1432 1428 1424 1419 1414 1409 1404 1398 1393 1389 1385 1381 1378 1375 1373 1372 1371 1371 1370 1369 1368 1367 1366 1366 1365 1365 1365 1365 1366 1365 1364 1364 1363 1363 1362 1362 1361 1360 1359 1357 1355 1353 1350 1348 1346 1345 1344 1344 1343 1343 1343 1344 1345 1346 1347 1348 1350 1352
1495 1494 1492 1491 1489 1488 1486 1484 1483 1481 1480 1478 1477 1475 1473 1471 1468 1466 1464 1461 1458 1455 1451 1448 1445 1441 1437 1433 1429 1425 1420 1415 1409 1404 1398 1393 1388 1383 1379 1376 1373 1371 1370 1369 1368 1368 1367 1366 1366 1365 1365 1365 1365 1365 1365 1365 1365 1365 1364 1364 1363 1363 1363 1361 1360 1359 1357 1354 1351 1349 1348 1346 1345 1343 1342 1341 1340 1340 1340 1340 1341 1342 1344 1346 1349
1494 1493 1492 1491 1489 1487 1486 1484 1482 1481 1480 1478 1477 1475 1473 1470 1468 1466 1464 1461 1458 1455 1452 1449 1445 1442 1438 1434 1430 1425 1421 1416 1410 1405 1399 1393 1388 1382 1378 1374 1372 1370 1368 1367 1367 1366 1366 1366 1365 1365 1365 1365 1365 1365 1365 1365 1366 1366 1366 1365 1365 1365 1364 1362 1361 1359 1357 1355 1352 1350 1348 1347 1345 1343 1341 1340 1338 1337 1336 1336 1336 1337 1339 1341 1344
1494 1493 1492 1490 1489 1487 1486 1484 1483 1481 1480 1478 1476 1475 1473 1470 1468 1466 1464 1461 1458 1455 1452 1449 1446 1442 1438 1435 1431 1426 1422 1417 1412 1406 1400 1394 1389 1383 1378 1374 1371 1369 1367 1366 1366 1366 1365 1365 1365 1366 1366 1366 1366 1366 1366 1366 1367 1368 1368 1368 1367 1367 1366 1364 1363 1361 1359 1357 1354 1352 1349 1348 1346 1344 1342 1340 1338 1337 1336 1335 1334 1335 1335 1337 1339
1494 1493 1491 1490 1488 1487 1485 1484 1483 1481 1480 1478 1477 1475 1472 1470 1468 1466 1464 1461 1459 1456 1453 1450 1446 1443 1439 1435 1431 1428 1423 1418 1413 1408 1402 1396 1391 1385 1380 1375 1372 1369 1367 1366 1366 1365 1365 1365 1366 1366 1367 1367 1368 1368 1368 1369 1369 1370 1370 1370 1369 1369 1368 1366 1364 1363 1361 1359 1357 1354 1352 1350 1349 1347 1345 1343 1341 1340 1339 1337 1336 1336 1335 1336 1338
1493 1492 1491 1490 1488 1487 1485 1484 1483 1481 1480 1478 1476 1475 1473 1470 1468 1466 1464 1461 1459 1456 1453 1450 1447 1443 1440 1436 1433 1429 1424 1420 1415 1410 1405 1399 1393 1388 1382 1378 1374 1370 1368 1367 1366 1366 1365 1365 1366 1366 1367 1368 1368 1368 1369 1370 1371 1372 1372 1372 1371 1371 1370 1368 1366 1365 1363 1362 1360 1358 1356 1354 1353 1351 1350 1348 1347 1345 1344 1342 1341 1341 1339 1340 1341
1493 1492 1491 1489 1488 1486 1485 1484 1482 1481 1480 1478 1476 1475 1473 1470 1468 1466 1464 1461 1459 1456 1453 1450 1448 1445 1441 1438 1435 1431 1427 1422 1418 1413 1408 1402 1397 1391 1386 1381 1377 1373 1371 1369 1368 1367 1366 1366 1366 1367 1368 1369 1370 1370 1371 1372 1373 1373 1373 1373 1373 1373 1372 1371 1369 1368 1366 1365 1363 1362 1361 1359 1357 1355 1354 1354 1353 1351 1350 1348 1347 1346 1345 1346 1348